Fitchburg, MA

2:21 PM EDT on June 26, 2017 (GMT -0400)
Fitchburg Municipal

Weather History for KFIT - March, 2014

Change the Weather History Date:

Monday, March 24, 2014

  Actual Average (KORH) Record (KORH)
Temperature  
Mean Temperature 22 °F -  
Max Temperature 32 °F 44 °F 67 °F (1988)
Min Temperature 14 °F 27 °F 6 °F (1906)
Degree Days  
Heating Degree Days 43    
Moisture  
Dew Point -2 °F    
Average Humidity 35    
Maximum Humidity 49    
Minimum Humidity 22    
Precipitation  
Precipitation 0.00 in - - ()
Sea Level Pressure  
Sea Level Pressure 30.13 in    
Wind  
Wind Speed 10 mph (NW)    
Max Wind Speed 20 mph    
Max Gust Speed 30 mph    
Visibility 10 miles    
Events      
Averages and records for this station are not official NWS values.
T = Trace of Precipitation, MM = Missing Value Source: NWS Daily Summary

Daily Weather History Graph

Daily Weather History Graph

Search for Another Location

Airport or City:

Trip Planner

Search our weather history database for the weather conditions in past years. The results will help you decide how hot, cold, wet, or windy it might be!

Date:

Astronomy

Mar. 24, 2014 Rise Set
Actual Time 6:43 AM EDT 7:03 PM EDT
Civil Twilight 6:15 AM EDT 7:32 PM EDT
Nautical Twilight 5:42 AM EDT 8:05 PM EDT
Astronomical Twilight 5:08 AM EDT 8:39 PM EDT
Moon 2:17 AM EDT (3/24) 12:19 PM EDT (3/24)
Length of Visible Light 13h 16m
Length of Day
12h 20m
Last Quarter, 43% of the Moon is Illuminated
Mar 24
Last Quarter
Mar 30
New
Apr 7
First Quarter
Apr 15
Full
Apr 22
Last Quarter

Hourly Weather History & Observations

Time (EDT) Temp. Windchill Dew Point Humidity Pressure Visibility Wind Dir Wind Speed Gust Speed Precip Events Conditions
12:52 AM 19.9 °F 8.6 °F -2.0 °F 38% 30.13 in 10.0 mi North 10.4 mph - N/A   Clear
1:52 AM 18.0 °F 3.1 °F -4.0 °F 38% 30.14 in 10.0 mi NNW 16.1 mph 26.5 mph N/A   Clear
2:52 AM 17.1 °F 6.6 °F -2.0 °F 43% 30.14 in 10.0 mi NNW 8.1 mph - N/A   Clear
3:52 AM 16.0 °F 7.4 °F -2.0 °F 45% 30.14 in 10.0 mi NW 5.8 mph - N/A   Clear
4:52 AM 16.0 °F 8.8 °F -2.9 °F 43% 30.15 in 10.0 mi North 4.6 mph - N/A   Clear
5:52 AM 15.1 °F 6.4 °F -2.0 °F 47% 30.16 in 10.0 mi NNW 5.8 mph - N/A   Clear
6:52 AM 14.0 °F 8.2 °F -2.0 °F 49% 30.17 in 10.0 mi NW 3.5 mph - N/A   Clear
7:52 AM 17.1 °F 5.0 °F -2.0 °F 43% 30.19 in 10.0 mi WNW 10.4 mph - N/A   Clear
8:52 AM 19.0 °F 8.2 °F -2.9 °F 38% 30.18 in 10.0 mi NNW 9.2 mph - N/A   Clear
9:52 AM 21.9 °F 10.4 °F -4.0 °F 32% 30.18 in 10.0 mi WNW 11.5 mph - N/A   Clear
10:52 AM 25.0 °F 13.6 °F -2.0 °F 31% 30.16 in 10.0 mi NW 12.7 mph - N/A   Clear
11:52 AM 25.0 °F 12.2 °F -2.9 °F 30% 30.14 in 10.0 mi NW 16.1 mph 25.3 mph N/A   Clear
12:52 PM 28.0 °F 14.9 °F -4.0 °F 25% 30.12 in 10.0 mi NNW 19.6 mph 29.9 mph N/A   Clear
1:52 PM 28.9 °F 17.3 °F -4.0 °F 24% 30.10 in 10.0 mi NNW 16.1 mph 25.3 mph N/A   Clear
2:52 PM 30.9 °F 20.7 °F -2.0 °F 24% 30.08 in 10.0 mi NNW 13.8 mph 20.7 mph N/A   Clear
3:52 PM 30.9 °F 20.2 °F -2.9 °F 23% 30.07 in 10.0 mi NW 15.0 mph 20.7 mph N/A   Clear
4:52 PM 30.9 °F 21.7 °F -4.0 °F 22% 30.06 in 10.0 mi NW 11.5 mph 19.6 mph N/A   Clear
5:52 PM 30.0 °F 22.4 °F -4.0 °F 23% 30.06 in 10.0 mi NW 8.1 mph 17.3 mph N/A   Clear
6:52 PM 28.0 °F 19.3 °F -2.9 °F 26% 30.08 in 10.0 mi NW 9.2 mph - N/A   Clear
7:52 PM 26.1 °F 20.5 °F -0.9 °F 31% 30.09 in 10.0 mi WNW 4.6 mph - N/A   Clear
8:52 PM 24.1 °F 19.7 °F 3.9 °F 42% 30.12 in 10.0 mi SW 3.5 mph - N/A   Clear
9:52 PM 23.0 °F 18.4 °F 3.9 °F 44% 30.13 in 10.0 mi WNW 3.5 mph - N/A   Clear
10:52 PM 24.1 °F 16.0 °F 3.9 °F 42% 30.14 in 10.0 mi WNW 6.9 mph - N/A   Clear
11:52 PM 21.9 °F 13.4 °F 3.9 °F 46% 30.14 in 10.0 mi WNW 6.9 mph - N/A   Clear